CAPE
0 0 0 0 0 0 0 0 0 0 0 0 0 0 9 17 25 21 6 20 27 29 31 20 8 3 7 0 1 3 1 2 3 1 1 1 1 2 1 1 4 2 2
0 0 0 0 0 0 0 0 0 0 0 0 0 3 25 19 17 14 13 12 20 25 29 19 21 12 8 6 1 1 1 2 1 2 1 1 3 0 0 2 1 1 0
0 0 0 0 0 0 0 0 0 0 0 2 4 19 11 14 7 5 3 8 20 11 25 23 14 13 17 5 1 1 2 0 5 1 1 4 2 5 1 1 0 2 0
0 0 0 0 0 0 0 0 0 0 1 5 6 16 7 4 4 1 4 8 16 12 17 16 4 6 19 3 0 1 6 0 8 2 0 3 2 1 2 3 2 0 3
0 0 0 0 0 0 0 0 0 0 0 0 2 3 5 4 0 0 0 10 18 7 16 12 11 9 23 1 0 1 4 10 17 16 0 7 0 0 1 3 4 1 0
0 0 0 0 0 0 0 0 0 0 0 2 4 6 9 11 0 0 0 1 5 13 16 13 5 4 17 3 0 0 0 4 7 16 17 0 2 1 1 2 2 2 2
0 0 0 0 0 0 0 0 0 0 2 2 3 8 2 4 0 0 0 3 15 18 17 14 14 15 26 1 0 4 12 2 3 13 26 12 1 1 1 1 2 2 2
0 0 0 0 0 0 0 0 0 0 3 2 3 7 2 1 0 0 0 2 4 7 12 19 21 12 0 0 0 14 14 34 20 15 21 17 11 5 0 0 2 1 1
0 0 0 0 0 0 0 0 0 0 2 1 4 7 4 0 3 0 0 0 1 1 9 20 10 5 0 0 0 9 19 20 12 3 5 0 0 3 0 0 0 1 2
0 0 0 0 0 0 0 0 0 0 0 0 8 12 3 6 2 0 0 3 5 4 2 4 0 0 0 0 0 2 6 3 1 2 40 25 14 24 6 0 0 2 2
0 0 0 0 0 0 0 0 0 0 0 3 16 12 10 1 10 0 0 0 3 2 5 3 6 0 0 0 0 0 1 0 2 4 0 1 7 11 22 10 0 0 0
0 0 0 0 0 0 0 0 0 0 0 0 3 2 3 7 0 0 0 0 0 10 7 13 14 0 0 0 0 0 0 0 8 4 6 7 5 6 4 13 10 0 0
0 0 0 0 0 0 0 0 0 0 0 0 0 0 0 2 1 4 2 0 3 3 9 3 1 2 0 6 5 0 2 8 6 5 4 6 5 5 13 13 27 11 0
0 0 0 0 0 0 0 0 0 0 0 0 0 0 2 4 3 0 2 6 6 7 5 8 9 3 2 1 2 16 12 11 4 2 2 2 2 4 2 1 1 22 40
0 0 0 0 0 0 0 0 0 0 0 0 0 1 3 3 0 0 0 0 1 0 1 2 0 3 7 9 0 0 12 3 5 3 2 1 2 3 2 1 3 2 17
0 0 0 0 0 0 0 0 0 0 0 0 0 0 0 0 0 0 0 0 0 0 2 7 4 0 9 6 3 8 10 6 7 3 3 1 2 2 2 1 1 2 3
0 0 0 0 0 0 0 0 0 0 0 0 0 0 0 0 0 0 0 0 1 1 3 5 4 4 5 8 11 2 6 5 9 5 3 4 2 2 2 3 1 1 1
0 0 0 0 0 0 0 0 0 4 6 0 1 0 0 0 0 0 0 0 1 1 1 1 1 0 1 1 1 2 3 5 7 5 4 8 3 2 4 3 1 1 1
0 0 0 0 0 0 0 0 1 4 1 2 2 1 0 0 0 0 0 2 3 2 2 2 1 1 1 1 1 1 1 2 1 3 3 4 3 2 2 2 1 2 0
0 0 0 0 0 0 0 0 2 3 3 0 0 4 1 0 0 0 1 2 4 3 3 3 2 2 2 2 2 2 2 1 0 2 3 3 2 2 2 2 3 2 2
0 0 0 0 0 0 0 1 4 3 0 0 2 0 0 0 1 1 2 2 2 2 3 3 3 2 2 2 2 2 2 2 1 3 3 3 2 2 3 2 3 3 1
0 0 0 0 0 0 0 1 4 1 0 1 4 3 0 2 1 1 2 2 2 2 3 3 3 3 3 3 3 3 3 2 2 2 2 2 1 1 2 2 3 3 2
0 0 0 0 0 0 0 2 2 0 0 3 4 3 3 2 2 1 2 2 2 2 2 3 3 4 3 3 3 3 4 2 3 3 3 2 2 2 2 1 1 1 1
0 0 0 0 0 0 0 3 0 0 1 2 2 2 3 3 2 1 2 3 1 1 2 3 3 4 4 4 3 3 3 3 3 3 2 2 1 2 2 2 1 0 1
0 0 0 0 0 0 2 4 1 3 3 1 3 3 2 2 2 1 3 3 0 2 3 3 3 4 3 4 4 4 2 2 2 3 4 2 1 1 1 1 1 1 1
0 0 0 0 0 0 3 4 4 2 3 2 3 3 3 2 2 2 4 2 1 2 3 3 3 4 4 3 2 1 1 1 0 0 1 0 0 0 1 1 0 1 0
CIN
-0 -0 -0 -0 -0 -0 -0 -0 -0 -0 -0 -0 -0 -0 -1 -2 -1 -0 -0 -0 -0 -1 -1 -1 -1 -0 -0 -0 -0 -0 -0 -0 -0 -0 -0 -0 -0 -0 -0 -0 -0 -0 -0
-0 -0 -0 -0 -0 -0 -0 -0 -0 -0 -0 -0 -0 -1 -2 -1 -1 -0 -2 -1 -1 -1 -2 -1 -1 -1 -1 -0 -0 -0 -0 -0 -0 -0 -0 -0 -0 -0 -0 -0 -0 -0 -0
-0 -0 -0 -0 -0 -0 -0 -0 -0 -0 -0 -1 -1 -1 -1 -1 -1 -1 -1 -2 -1 -1 -1 -1 -2 -2 -1 -0 -0 -0 -0 -0 -1 -0 -0 -0 -0 -0 -0 -0 -0 -0 -0
-0 -0 -0 -0 -0 -0 -0 -0 -0 -0 -0 -1 -0 -1 -1 -1 -1 -1 -1 -1 -1 -1 -3 -2 -4 -4 -1 -1 -0 -0 -0 -0 -0 -0 -1 -0 -0 -0 -0 -0 -0 -0 -0
-0 -0 -0 -0 -0 -0 -0 -0 -0 -0 -0 -2 -1 -1 -1 -1 -0 -0 -0 -1 -2 -1 -2 -2 -1 -1 -2 -2 -0 -0 -0 -0 -0 -0 -0 -0 -0 -0 -0 -0 -0 -0 -0
-0 -0 -0 -0 -0 -0 -0 -0 -0 -0 -0 -1 -1 -1 -1 -2 -0 -0 -0 -0 -5 -1 -2 -1 -1 -2 -3 -1 -0 -0 -0 -1 -0 -0 -0 -0 -0 -0 -0 -0 -0 -0 -0
-0 -0 -0 -0 -0 -0 -0 -0 -0 -0 -1 -1 -2 -0 -2 -0 -0 -0 -0 -2 -1 -1 -0 -1 -1 -1 -1 -13 -0 -2 -1 -4 -4 -11 -0 -0 -0 -0 -0 -0 -0 -0 -0
-0 -0 -0 -0 -0 -0 -0 -0 -0 -0 -1 -1 -1 -1 -5 -2 -4 -0 -0 -2 -2 -1 -0 -1 -0 -0 -3 -0 -0 -2 -2 -1 -0 -5 -5 -2 -3 -1 -0 -0 -0 -0 -0
-0 -0 -0 -0 -0 -0 -0 -0 -0 -0 -1 -2 -2 -1 -1 -1 -23 -0 -0 -0 -2 -3 -1 -1 -0 -1 -0 -0 -0 -2 -2 -1 -2 -18 -22 -20 -31 -28 -0 -0 -0 -0 -0
-0 -0 -0 -0 -0 -0 -0 -0 -0 -0 -0 -0 -2 -1 -6 -2 -14 -0 -0 -2 -1 -1 -2 -1 -0 -0 -0 -0 -0 -1 -0 -1 -1 -18 -1 -0 -4 -1 -14 -0 -0 -0 -0
-0 -0 -0 -0 -0 -0 -0 -0 -0 -0 -0 -1 -1 -1 -0 -4 -1 -0 -0 -0 -2 -1 -1 -2 -1 -7 -0 -0 -0 -1 -0 -0 -1 -1 -1 -1 -2 -1 -1 -0 -0 -0 -0
-0 -0 -0 -0 -0 -0 -0 -0 -0 -0 -0 -1 -2 -2 -2 -2 -0 -0 -0 -0 -0 -1 -1 -0 -0 -0 -0 -0 -0 -0 -0 -1 -1 -1 -0 -0 -0 -12 -6 -5 -0 -0 -0
-0 -0 -0 -0 -0 -0 -0 -0 -0 -0 -0 -0 -0 -0 -3 -3 -4 -3 -3 -0 -2 -1 -0 -3 -5 -1 -1 -1 -1 -4 -4 -0 -0 -0 -0 -0 -0 -0 -5 -0 -0 -3 -0
-0 -0 -0 -0 -0 -0 -0 -0 -0 -0 -0 -0 -0 -0 -2 -2 -1 -0 -1 -1 -0 -0 -1 -0 -0 -0 -0 -0 -1 -0 -1 -1 -0 -0 -0 -0 -0 -0 -0 -0 -1 -1 -0
-0 -0 -0 -0 -0 -0 -0 -0 -0 -0 -0 -0 -0 -2 -1 -1 -0 -0 -0 -0 -0 -0 -0 -0 -0 -0 -0 -1 -0 -0 -1 -1 -0 -0 -0 -0 -0 -0 -0 -0 -0 -0 -0
-0 -0 -0 -0 -0 -0 -0 -0 -0 -0 -0 -0 -0 -0 -0 -0 -0 -0 -0 -0 -0 -0 -1 -0 -0 -0 -0 -0 -0 -1 -1 -0 -0 -0 -0 -0 -0 -0 -0 -0 -0 -0 -0
-0 -0 -0 -0 -0 -0 -0 -0 -0 -0 -0 -0 -0 -0 -0 -0 -0 -0 -0 -0 -4 -0 -0 -0 -0 -0 -0 -0 -0 -0 -0 -0 -0 -0 -0 -0 -0 -0 -0 -0 -0 -0 -0
-0 -0 -0 -0 -0 -0 -0 -0 -0 -1 -1 -0 -0 -0 -0 -0 -0 -0 -0 -2 -0 -0 -0 -0 -0 -0 -0 -0 -0 -0 -0 -0 -0 -0 -0 -0 -0 -0 -0 -0 -0 -0 -0
-0 -0 -0 -0 -0 -0 -0 -0 -3 -2 -1 -2 -3 -1 -1 -0 -0 -0 -0 -0 -0 -0 -0 -0 -0 -0 -0 -0 -0 -0 -0 -0 -0 -0 -0 -0 -0 -0 -0 -0 -0 -0 -0
-0 -0 -0 -0 -0 -0 -0 -0 -1 -1 -2 -0 -0 -1 -2 -0 -0 -0 -0 -0 -0 -0 -0 -0 -0 -0 -0 -0 -0 -0 -0 -0 -0 -0 -0 -0 -0 -0 -0 -0 -0 -0 -0
-0 -0 -0 -0 -0 -0 -0 -3 -1 -2 -2 -0 -1 -0 -0 -1 -0 -0 -0 -0 -0 -0 -0 -0 -0 -0 -0 -0 -0 -0 -0 -0 -0 -0 -0 -0 -0 -0 -0 -0 -0 -0 -0
-0 -0 -0 -0 -0 -0 -0 -2 -2 -3 -0 -2 -1 -1 -0 -0 -1 -0 -0 -0 -0 -0 -0 -0 -0 -0 -0 -0 -0 -0 -0 -0 -0 -0 -0 -0 -0 -0 -0 -0 -0 -0 -0
-0 -0 -0 -0 -0 -0 -0 -2 -2 -2 -0 -1 -1 -0 -0 -0 -1 -0 -0 -0 -0 -0 -0 -0 -0 -0 -0 -0 -0 -0 -0 -0 -0 -0 -0 -0 -0 -0 -0 -0 -0 -0 -0
-0 -0 -0 -0 -0 -0 -0 -2 -0 -3 -1 -1 -0 -0 -0 -0 -0 -0 -0 -0 -0 -0 -0 -0 -0 -0 -0 -0 -0 -0 -0 -0 -0 -0 -0 -0 -0 -0 -0 -0 -0 -2 -1
-0 -0 -0 -0 -0 -0 -2 -2 -3 -1 -2 -0 -0 -0 -0 -0 -0 -0 -0 -0 -0 -0 -0 -0 -0 -0 -0 -0 -0 -0 -0 -0 -0 -0 -0 -0 -0 -0 -0 -0 -0 -0 -0
-0 -0 -0 -0 -0 -0 -1 -1 -1 -2 -1 -0 -0 -0 -0 -0 -0 -0 -0 -0 -0 -0 -0 -0 -0 -0 -0 -0 -0 -0 -0 -0 -0 -0 -0 -0 -0 -0 -0 -0 -0 -0 -0
Wind_Speed
20 22 25 27 28 29 30 31 31 29 26 25 24 20 20 22 23 23 22 19 21 19 18 23 25 29 24 27 24 22 17 14 12 12 13 12 6 6 7 12 18 21 23
20 24 25 27 27 28 30 32 30 27 27 25 21 20 23 24 24 20 21 16 8 14 18 27 26 32 31 33 27 24 28 24 18 15 16 11 3 6 10 13 12 13 17
21 23 25 25 25 27 29 31 30 30 28 24 24 24 26 25 25 27 30 17 6 14 23 26 29 35 33 35 33 27 28 28 26 28 31 32 18 25 20 17 13 14 14
21 21 21 25 25 25 27 29 30 30 28 26 27 28 30 30 28 33 34 25 18 21 24 28 32 34 34 36 33 29 29 30 29 31 33 33 31 27 23 21 19 15 14
18 21 23 23 22 23 25 27 29 29 28 27 29 29 29 27 31 34 35 31 23 28 27 31 32 34 33 32 32 32 30 29 31 31 32 32 31 28 26 23 20 19 17
18 19 20 21 22 23 23 25 27 28 29 29 30 30 30 28 34 36 36 32 26 29 31 32 34 31 34 34 33 29 27 29 30 31 29 30 31 28 27 24 22 21 18
18 20 22 23 23 22 22 23 25 26 27 28 31 31 31 29 35 37 37 34 30 31 31 32 32 32 32 35 34 28 25 26 25 26 29 28 30 29 29 27 26 23 20
18 21 23 23 23 22 21 22 23 24 24 27 30 32 31 30 35 37 37 32 29 30 28 29 31 33 34 36 33 29 27 24 25 25 22 25 28 28 28 28 26 22 19
20 21 23 23 23 22 22 23 21 21 22 24 29 32 32 33 33 36 37 34 32 31 29 28 29 30 36 36 33 30 29 29 28 22 18 19 26 26 27 26 25 23 21
21 22 23 24 23 23 24 23 20 20 20 21 27 31 30 34 32 35 36 35 36 35 32 32 25 32 35 35 33 30 32 33 34 30 26 24 25 25 23 23 24 22 21
19 21 23 23 23 23 23 22 21 20 20 21 24 28 29 31 34 33 35 36 39 37 34 31 30 34 36 33 30 30 33 31 27 25 25 25 25 25 25 23 21 20 19
20 20 23 23 23 23 22 21 22 22 21 22 23 27 31 32 33 32 35 35 38 38 35 32 34 37 31 28 26 32 32 26 25 24 24 23 24 24 25 24 21 19 18
21 23 24 24 24 23 21 22 22 22 22 23 25 28 33 36 35 35 39 39 38 34 32 34 29 29 27 28 28 29 28 26 25 24 24 23 24 25 24 22 20 18 17
22 23 24 23 25 22 20 22 24 26 26 24 26 29 32 35 37 41 41 39 38 35 33 30 30 29 29 29 29 27 26 25 23 20 19 20 23 23 23 23 23 20 18
25 25 24 25 22 19 20 21 22 26 26 25 27 28 32 33 37 40 40 39 36 34 31 30 30 29 30 28 29 24 23 22 21 17 15 13 15 21 21 21 21 20 18
24 20 25 21 20 20 20 22 21 23 24 22 23 27 28 31 40 39 38 37 32 33 32 31 30 28 25 24 20 19 21 22 21 17 14 13 12 11 20 20 20 19 18
18 25 23 16 17 18 22 23 26 22 20 20 23 28 26 31 36 35 38 35 29 31 29 28 27 21 19 20 20 17 19 21 20 19 14 12 12 10 10 20 19 18 17
21 19 19 18 18 21 23 24 25 26 26 26 22 27 28 35 31 31 33 30 32 30 28 26 22 20 17 16 16 17 16 14 14 14 14 12 12 10 11 13 17 17 16
23 24 20 19 21 20 24 24 25 26 26 24 27 27 32 34 27 29 32 31 28 25 22 20 18 17 18 18 18 18 16 16 13 11 11 11 12 11 11 13 15 17 17
21 20 19 20 23 24 26 25 27 26 24 26 26 29 34 31 30 30 31 27 23 20 18 15 15 15 17 19 18 17 17 17 16 16 13 10 10 11 12 13 14 16 17
22 21 21 22 24 26 26 26 25 26 27 26 27 27 33 26 26 28 25 17 18 18 17 12 12 14 16 17 13 16 15 12 10 9 9 9 10 10 13 15 16 17 18
22 22 22 24 24 26 25 26 26 27 28 29 28 29 29 24 24 25 17 12 16 16 15 9 9 13 14 12 13 11 8 8 9 8 6 6 8 14 18 19 19 19 20
22 22 22 23 25 22 25 27 26 28 30 31 31 30 26 23 22 18 6 12 16 15 10 5 6 10 11 10 9 6 6 6 5 4 3 5 6 11 16 18 20 21 22
22 22 24 24 25 24 26 26 27 29 31 31 32 27 23 21 3 3 2 10 16 9 6 6 6 7 6 6 4 5 5 5 4 1 2 4 7 11 13 17 18 19 21
22 23 23 23 24 25 25 25 28 30 31 33 31 27 21 5 5 7 2 8 6 8 9 8 7 6 5 8 6 5 4 4 3 3 3 5 6 11 14 16 18 19 21
22 23 23 24 25 24 24 25 27 30 32 32 30 26 20 15 8 9 3 6 9 8 9 8 6 8 9 8 8 8 5 5 6 4 6 8 9 11 15 17 19 21 22
Wind_Direction
4 357 354 350 349 349 346 345 347 352 354 353 352 358 359 356 358 0 3 6 7 12 14 11 10 5 14 10 15 16 17 12 356 350 352 333 319 254 246 255 272 289 295
4 353 352 343 348 350 349 346 355 358 359 1 2 1 353 357 358 5 1 6 4 13 14 5 5 357 0 357 7 11 9 11 11 3 10 8 308 246 261 271 268 286 289
2 356 350 352 351 354 350 353 360 1 2 6 2 357 351 356 357 353 346 2 347 12 5 3 359 348 352 348 354 2 3 4 6 5 0 360 307 318 299 292 273 287 328
359 360 358 349 352 357 357 359 2 4 7 7 359 350 344 347 354 345 338 354 2 358 1 357 352 351 348 347 354 357 356 357 0 358 356 347 339 316 308 303 294 275 276
11 1 1 357 360 2 1 3 4 8 8 8 354 351 353 358 352 344 337 343 358 351 355 350 348 348 350 351 352 350 351 353 353 353 352 343 334 321 313 297 292 311 310
9 3 6 6 1 1 5 4 8 10 10 8 355 353 355 356 348 336 331 338 353 350 349 349 347 353 350 349 349 352 356 351 347 346 348 346 330 315 308 294 278 298 302
7 2 360 0 359 4 7 7 9 11 12 10 360 355 354 355 343 331 323 331 346 346 349 350 353 354 356 351 350 354 355 355 354 351 342 339 323 317 307 299 293 295 307
7 1 357 359 358 6 9 9 10 12 15 12 2 356 354 353 347 337 330 348 355 352 356 356 354 353 353 351 353 355 356 359 356 356 360 345 326 318 314 311 292 301 311
2 1 357 357 0 5 8 7 12 14 15 14 3 355 352 350 352 347 344 349 352 355 356 356 355 354 351 350 349 351 348 342 347 360 6 1 329 318 320 323 311 288 293
358 353 356 357 2 4 5 8 14 14 16 14 4 353 353 349 355 352 351 350 348 349 351 350 0 352 349 348 347 345 337 330 329 334 342 342 335 324 326 323 322 309 289
6 357 356 359 3 5 8 13 14 13 13 10 4 358 351 351 348 352 351 349 348 348 348 350 349 347 344 347 348 341 332 335 339 342 339 334 330 324 314 316 314 315 315
2 3 355 360 2 5 10 13 12 13 12 8 4 359 352 349 350 351 349 350 347 344 346 348 345 343 348 349 350 341 337 342 343 340 339 337 331 327 317 309 307 307 310
354 353 353 356 1 9 14 13 14 15 13 10 8 2 351 344 347 349 345 347 348 351 351 346 349 351 353 353 349 346 348 345 344 342 339 338 331 324 316 311 307 304 301
356 352 352 359 0 13 19 17 15 13 12 11 10 4 1 352 347 343 346 348 350 353 355 358 358 358 358 356 353 354 355 355 354 358 3 353 331 322 314 308 300 299 292
346 342 352 356 11 22 20 19 18 16 14 13 12 8 2 0 355 350 351 352 358 1 4 6 6 8 7 6 5 9 11 13 14 24 29 42 25 327 312 308 301 300 293
346 16 351 10 23 23 23 19 24 21 22 23 21 14 11 7 349 353 0 4 14 14 16 18 20 20 25 29 35 36 25 22 21 32 49 65 74 67 306 304 307 299 291
25 350 2 32 30 28 23 19 13 20 25 26 24 16 18 11 0 7 8 17 30 28 31 31 33 40 44 41 42 48 36 27 26 27 53 76 89 112 150 298 301 297 291
9 19 23 27 29 25 21 18 16 15 15 14 18 15 16 2 14 19 18 27 27 33 37 39 43 46 49 52 54 50 50 54 55 55 59 79 90 116 147 229 283 288 282
3 5 21 24 22 28 20 18 17 16 18 18 16 15 5 0 21 23 18 25 32 37 41 44 48 49 49 49 48 48 51 53 65 81 99 104 101 119 145 181 213 263 277
9 18 23 23 21 21 16 18 16 18 21 18 18 12 358 5 12 16 18 28 35 38 39 43 45 46 46 46 48 53 52 52 53 54 69 114 131 161 175 189 196 203 228
6 9 15 19 17 17 17 19 21 20 19 18 17 14 357 17 20 18 26 40 37 38 37 39 42 43 42 44 51 47 51 65 76 95 107 104 96 145 208 213 218 218 217
4 10 11 12 16 17 20 20 21 19 18 13 13 9 8 24 25 25 41 45 38 35 33 33 37 39 41 45 45 49 63 65 67 78 112 145 172 218 239 242 238 234 237
3 7 13 14 15 24 20 18 20 18 14 10 8 7 19 25 30 42 49 44 35 32 28 5 18 35 41 42 43 50 50 53 64 80 145 170 174 201 216 220 225 230 240
8 8 7 11 16 23 18 19 20 17 14 12 6 18 27 34 79 56 13 41 35 13 332 335 15 26 12 9 6 36 39 42 43 50 136 162 190 198 197 206 201 189 195
6 9 17 19 19 19 21 23 20 16 13 3 10 23 34 76 258 276 0 38 357 342 321 330 18 12 351 325 337 346 354 11 42 73 116 164 171 196 194 189 191 185 180
13 17 21 21 20 24 25 24 21 14 4 11 13 28 40 290 270 276 296 313 317 329 327 330 354 327 324 327 329 329 2 31 47 67 101 133 143 145 146 150 163 166 171